#timestamp,LO_Frequency,Hit,StdDev 
1674309615.1,286046998.7,N
1674309635.8,286046999.5,N
1674309655.7,286046996.8,N
1674309675.5,286046997.1,N
1674309695.3,286046999.1,N
1674309715.2,286046997.3,N
1674309735.0,286046996.5,N
1674309735.9,286046996.5,N
1674309755.7,286046998.9,N
1674309775.6,286046998.7,N
1674309795.4,286046998.9,N
1674309815.2,286046996.6,N
1674309835.1,286046997.1,N
1674309836.0,286046997.1,N
1674309855.8,286046997.9,N
1674309875.6,286046997.7,N
1674309895.5,286046997.5,N
1674309915.3,286046995.4,Y
1674309935.1,286046999.4,P
1674309955.9,286046999.3,N
1674309975.7,286046998.4,N
1674309995.5,286046999.4,N
1674310015.4,286046999.5,N
1674310035.2,286046998.7,N
1674310055.0,286047001.2,N
1674310055.9,286047001.2,N
1674310075.8,286047000.5,N
1674310095.6,286046999.8,N
1674310115.5,286046999.9,N
1674310135.3,286046999.7,N
1674310155.1,286047002.4,N
1674310175.9,286047002.5,N
1674310195.7,286047000.1,N
1674310215.5,286047002.8,N
1674310235.3,286047002.7,N
1674310255.2,286046999.7,N
1674310275.0,286046999.8,N
1674310275.9,286046999.8,N
1674310295.7,286046999.8,N
1674310315.6,286047000.7,N
1674310335.4,286047000.1,N
1674310355.2,286047002.1,N
1674310375.1,286047001.9,N
1674310376.0,286047001.9,N
1674310395.8,286047004.4,Y
1674310415.7,286047004.4,P
1674310435.5,286047003.6,N
1674310455.3,286047003.3,N
1674310475.2,286047005.9,Y
1674310495.9,286047004.3,P
1674310515.7,286047001.4,N
1674310535.6,286047001.5,N
1674310555.4,286047003.9,Y
1674310575.2,286047002.3,P
1674310595.1,286047001.9,P
1674310596.0,286047001.9,P
1674310615.8,286047004.0,Y
1674310635.6,286047002.8,P
1674310655.5,286046999.9,N
1674310675.3,286047000.2,N
1674310695.1,286047001.9,N
1674310715.9,286047004.1,Y
1674310735.7,286047001.6,P
1674310755.5,286047004.4,P
1674310775.4,286047003.8,N
1674310795.2,286047003.2,N
1674310815.0,286047003.5,N
1674310815.9,286047003.5,Y
1674310835.8,286047002.2,P
1674310855.6,286047001.6,P
1674310875.4,286047002.2,P
1674310895.3,286047001.7,Y
1674310915.1,286047000.0,P
1674310935.8,286047002.5,N
1674310955.7,286047004.1,P
1674310975.5,286047004.2,N
1674310995.3,286047003.8,N
1674311015.2,286047006.0,Y
1674311035.9,286047002.3,P
1674311055.7,286047002.0,P
1674311075.6,286047001.8,P
1674311095.4,286047004.0,Y
1674311115.2,286046999.9,P
1674311135.1,286047002.6,N
1674311136.0,286047002.6,N
1674311155.8,286047001.6,N
1674311175.6,286047001.5,N
1674311195.5,286047004.3,Y
1674311215.3,286047002.3,P
1674311235.1,286047002.0,P
1674311255.9,286047002.3,P
1674311275.7,286047001.8,Y
1674311295.5,286047000.4,P
1674311315.4,286047000.4,N
1674311335.2,286047002.0,N
1674311355.0,286047003.8,Y
1674311355.9,286047003.8,P
1674311375.8,286047001.7,N
1674311395.6,286047003.1,N
1674311415.5,286047004.1,Y
1674311435.3,286047002.1,P
1674311455.1,286047004.4,P
1674311475.9,286047004.4,P
1674311495.7,286047004.0,Y
1674311515.5,286047001.1,P
1674311535.4,286046999.8,N
1674311555.2,286047000.2,N
1674311575.0,286047002.7,N
1674311575.9,286047002.7,N
1674311595.8,286047001.8,N
1674311615.6,286047002.2,N
1674311635.4,286047005.4,Y
1674311655.3,286047004.4,P
1674311675.1,286047004.0,N
1674311676.0,286047004.0,P
1674311695.8,286047004.1,Y
1674311715.7,286047000.9,P
1674311735.5,286047002.6,N
1674311755.3,286047001.7,N
1674311775.2,286047001.4,N
1674311795.9,286047004.3,Y
1674311815.7,286047001.9,P
1674311835.6,286047001.8,P
1674311855.4,286047001.7,P
1674311875.2,286047004.2,Y
1674311895.1,286047001.9,P
1674311896.0,286047001.9,P
1674311915.8,286047004.0,P
1674311935.6,286047003.3,Y
1674311955.5,286047004.4,P
1674311975.3,286047002.1,N
1674311995.1,286047004.4,P
1674312015.9,286047003.1,N
1674312035.7,286047005.5,Y
1674312055.5,286047001.9,P
1674312075.4,286047002.6,P
1674312095.2,286047004.2,P
1674312115.0,286047005.6,Y
1674312115.9,286047005.6,P
1674312135.8,286047002.4,N
1674312155.6,286047000.1,N
1674312175.4,286047000.2,N
1674312195.3,286047000.1,N
1674312215.1,286047001.7,N
1674312235.8,286047001.9,N
1674312255.7,286047003.9,N
1674312275.5,286047003.8,N
1674312295.3,286047005.5,Y
1674312315.2,286047001.7,P
1674312335.9,286047004.2,P
1674312355.7,286047004.4,P
1674312375.6,286047003.9,Y
1674312395.4,286046998.2,P
1674312415.2,286046999.9,N
1674312435.1,286047000.2,N
1674312436.0,286047000.2,N
1674312455.8,286047001.6,N
1674312475.6,286047001.5,N
1674312495.5,286047004.2,N
1674312515.3,286047004.1,N
1674312535.1,286047001.4,N
1674312555.9,286047004.2,N
1674312575.7,286047002.9,N
1674312595.5,286047005.3,N
1674312615.4,286047006.9,Y
1674312635.2,286047004.5,P
1674312655.0,286047006.8,P
1674312655.9,286047006.8,P
1674312675.8,286047007.3,Y
1674312695.6,286047002.4,P
1674312715.4,286047001.9,N
1674312735.3,286047002.7,N
1674312755.1,286047002.8,N
1674312775.8,286047002.0,N
1674312795.7,286047002.4,N
1674312815.5,286047002.0,N
1674312835.3,286047003.6,Y
1674312855.2,286047000.0,P
1674312875.0,286047000.0,N
1674312875.9,286047000.0,N
1674312895.7,286047002.2,N
1674312915.6,286047004.4,Y
1674312935.4,286047004.4,P
1674312955.2,286047004.0,N
1674312975.1,286047003.4,N
1674312976.0,286047003.4,N
1674312995.8,286047005.3,Y
1674313015.6,286047001.8,P
1674313035.5,286047004.4,P
1674313055.3,286047004.1,P
1674313075.1,286047003.6,Y
1674313095.9,286047000.0,P
1674313115.7,286047002.4,N
1674313135.5,286047002.4,N
1674313155.4,286047002.2,N
1674313175.2,286047001.7,N
1674313195.0,286047003.5,Y
1674313196.0,286047003.5,P
